Погода в Юрьевке

Украина / Днепропетровская область     48°44′08″N   36°01′01″E
темп.,
°C
ветер,
м/с
пор.,
м/с
влажн.,
%
обл.,
%
осадки,
мм/ч
давл.,
гПа
погр.,
м
9 мая, вс
вс900:00+7ссз51084100 0.8 1013980
03:00+5сз61284100 0.8 1014738
06:00+5сз71181100 0.0 1015857
09:00+7ссз8116593 0.0 10181222
12:00+12сз911456 0.0 10182075
15:00+13ссз91138100 0.0 10192642
18:00+11ссз710515 0.0 10212304
21:00+7сз48685 0.0 1023162
10 мая, пн
пн1000:00+5сз49765 0.0 1024177
03:00+4ссз410800 0.0 1025188
06:00+4сз511785 0.0 1025255
09:00+11ссз69535 0.0 1025972
12:00+14ссз893983 0.0 10232468
15:00+15ссз91038100 0.0 10222636
18:00+13ссз71150100 0.0 10201986
21:00+10ссз8145778 0.0 1019840
11 мая, вт
вт1100:00+9ссз101668100 0.3 1015995
03:00+9с91781100 0.6 1014840
06:00+10с81487100 0.3 1014873
09:00+10ссв61090100 0.4 1014953
12:00+10св697674 0.1 1015936
15:00+11св81159100 0.1 10151525
18:00+9всв7117625 0.1 1015944
21:00+7св71085100 0.3 10151085
12 мая, ср
ср1200:00+7в598796 0.1 1016577
03:00+7в61190100 0.4 1016720
06:00+7в8128890 0.3 1016839
09:00+8в7119098 1.1 1016785
12:00+8вюв7119191 3.1 1015957
15:00+13ю476483 5.0 10131273
18:00+13ююз36686 1.7 1014487
21:00+9ююв337957 1.9 101421
13 мая, чт
чт1300:00+8ююв35959 0.0 1015107
03:00+7юв33973 0.0 101536
06:00+8вюв349478 0.0 101679
09:00+15вюв46725 0.0 1016494
12:00+20вюв57578 0.0 10151330
15:00+22юв7850100 0.0 10131687
18:00+21юв5962100 0.0 1013461
21:00+16вюв4118375 0.0 1013207